If you wish to contribute or participate in the discussions about articles you are invited to join SKYbrary as a registered user

William R. Fairchild International Airport

From SKYbrary Wiki
KCLM
Airport
ICAO: KCLM
Summary
Name William R. Fairchild International Airport
Region North America
Territory United States US.gif
Location Port Angeles, Washington
Serving
Coordinates 48° 6' 59.3374", -123° 29' 35.6708"
Close to Unk
Runways
Designator Length Width Surface ROPS
8/26 1935 m6,348.425 ft 46 m150.919 ft ASP yes/yes
13/31 989 m3,244.751 ft 15 m49.213 ft ASP yes/yes
METAR
Observation KCLM 180353Z AUTO 22006KT 10SM BKN060 05/03 A3024 RMK AO2 SLP241 T00500033
Station Port Angeles, William R. Fairchild International Airport
Date/Time 18 November 2017 03:53:00
Wind direction 220°
Wind speed 06 kts
Lowest cloud amount broken clouds
Temperature 5°C
Dew point 3.3°C
Humidity 88%
QNH hPa
Weather condition n/a

WX
Tag(s) Fog

William R. Fairchild International Airport

ICAO: KCLM IATA: CLM

Description

William R. Fairchild International Airport is a public use airport located within the city limits of Port Angeles, in Clallam County, Washington.

Climatology

Temperate Marine climate/Oceanic climate (Köppen climate classification Cfb). Moderately cool summer and comparatively warm winter.

Maps

Terrain

Loading map...

Airport Layout

Loading map...


Accidents & Serious Incidents at or in vicinity of KCLM

None on SKYbrary